TimeCST,TemperatureF,Dew PointF,Humidity,Sea Level PressureIn,VisibilityMPH,Wind Direction,Wind SpeedMPH,Gust SpeedMPH,PrecipitationIn,Events,Conditions,WindDirDegrees,DateUTC
12:15 AM,35.6,30.2,81,30.05,10.0,Calm,Calm,-,N/A,,Overcast,0,2013-02-03 06:15:00
12:35 AM,37.4,30.2,75,30.05,10.0,Calm,Calm,-,N/A,,Overcast,0,2013-02-03 06:35:00
12:55 AM,35.6,30.2,81,30.04,10.0,Calm,Calm,-,N/A,,Overcast,0,2013-02-03 06:55:00
1:15 AM,35.6,30.2,81,30.04,10.0,Calm,Calm,-,N/A,,Overcast,0,2013-02-03 07:15:00
1:35 AM,35.6,30.2,81,30.03,10.0,NNE,3.5,-,N/A,,Overcast,20,2013-02-03 07:35:00
1:55 AM,35.6,30.2,81,30.04,10.0,Calm,Calm,-,N/A,,Overcast,0,2013-02-03 07:55:00
2:15 AM,35.6,30.2,81,30.03,5.0,Calm,Calm,-,N/A,Snow,Light Snow,0,2013-02-03 08:15:00
2:35 AM,35.6,30.2,81,30.02,10.0,Calm,Calm,-,N/A,,Overcast,0,2013-02-03 08:35:00
2:55 AM,35.6,30.2,81,30.02,10.0,Calm,Calm,-,N/A,,Overcast,0,2013-02-03 08:55:00
3:15 AM,35.6,30.2,81,30.00,10.0,Calm,Calm,-,N/A,,Overcast,0,2013-02-03 09:15:00
3:55 AM,35.6,32.0,87,29.99,10.0,Calm,Calm,-,N/A,,Overcast,0,2013-02-03 09:55:00
4:15 AM,35.6,30.2,81,29.99,10.0,Calm,Calm,-,N/A,,Overcast,0,2013-02-03 10:15:00
4:35 AM,35.6,32.0,87,29.98,10.0,Calm,Calm,-,N/A,,Overcast,0,2013-02-03 10:35:00
4:55 AM,35.6,32.0,87,29.98,10.0,Calm,Calm,-,N/A,,Overcast,0,2013-02-03 10:55:00
5:15 AM,33.8,32.0,93,29.97,10.0,Calm,Calm,-,N/A,,Overcast,0,2013-02-03 11:15:00
5:35 AM,33.8,32.0,93,29.97,10.0,Calm,Calm,-,N/A,,Overcast,0,2013-02-03 11:35:00
6:15 AM,33.8,33.8,100,29.97,1.5,Calm,Calm,-,N/A,Snow,Light Snow,0,2013-02-03 12:15:00
6:35 AM,33.8,33.8,100,29.96,1.8,Calm,Calm,-,N/A,Snow,Light Snow,0,2013-02-03 12:35:00
6:55 AM,33.8,33.8,100,29.97,2.0,Calm,Calm,-,N/A,Snow,Light Snow,0,2013-02-03 12:55:00
7:15 AM,33.8,33.8,100,29.97,1.0,Calm,Calm,-,N/A,Snow,Light Snow,0,2013-02-03 13:15:00
7:35 AM,33.8,33.8,100,29.96,1.5,Calm,Calm,-,N/A,,Overcast,0,2013-02-03 13:35:00
7:55 AM,33.8,33.8,100,29.96,0.8,Calm,Calm,-,N/A,Snow,Light Snow,0,2013-02-03 13:55:00
8:15 AM,33.8,33.8,100,29.97,1.2,Calm,Calm,-,N/A,Snow,Light Snow,0,2013-02-03 14:15:00
8:35 AM,33.8,33.8,100,29.96,0.5,Calm,Calm,-,N/A,Snow,Light Snow,0,2013-02-03 14:35:00
8:55 AM,33.8,33.8,100,29.97,0.5,Calm,Calm,-,0.01,Snow,Light Snow,0,2013-02-03 14:55:00
9:15 AM,33.8,33.8,100,29.96,0.8,Calm,Calm,-,0.01,Snow,Light Snow,0,2013-02-03 15:15:00
9:35 AM,35.6,33.8,93,29.96,2.5,Calm,Calm,-,0.01,Snow,Light Snow,0,2013-02-03 15:35:00
9:55 AM,35.6,33.8,93,29.97,5.0,NNE,3.5,-,N/A,Snow,Light Snow,20,2013-02-03 15:55:00
10:15 AM,35.6,35.6,100,29.97,10.0,NW,3.5,-,N/A,Snow,Light Snow,320,2013-02-03 16:15:00
10:35 AM,37.4,35.6,93,29.97,7.0,West,4.6,-,N/A,Rain,Rain,270,2013-02-03 16:35:00
10:55 AM,37.4,35.6,93,29.98,7.0,NW,9.2,-,N/A,Rain,Light Rain,310,2013-02-03 16:55:00
11:15 AM,37.4,35.6,93,29.97,10.0,NW,8.1,18.4,N/A,,Unknown,310,2013-02-03 17:15:00
11:35 AM,37.4,35.6,93,29.97,10.0,NW,8.1,-,N/A,,Overcast,310,2013-02-03 17:35:00
11:55 AM,37.4,33.8,87,29.97,10.0,WNW,10.4,-,N/A,,Overcast,300,2013-02-03 17:55:00
12:15 PM,37.4,33.8,87,29.97,10.0,WNW,9.2,-,N/A,,Overcast,290,2013-02-03 18:15:00
12:35 PM,37.4,32.0,81,29.98,10.0,WNW,5.8,9.2,N/A,,Overcast,290,2013-02-03 18:35:00
12:55 PM,39.2,33.8,81,29.98,10.0,WNW,10.4,20.7,N/A,,Overcast,300,2013-02-03 18:55:00
1:15 PM,39.2,32.0,75,29.99,10.0,West,5.8,-,N/A,,Overcast,280,2013-02-03 19:15:00
1:35 PM,39.2,32.0,75,29.99,10.0,WNW,6.9,10.4,N/A,,Overcast,290,2013-02-03 19:35:00
1:55 PM,37.4,32.0,81,30.00,1.0,WNW,8.1,-,N/A,,Overcast,290,2013-02-03 19:55:00
2:15 PM,39.2,32.0,75,30.01,1.0,WNW,5.8,-,N/A,,Overcast,300,2013-02-03 20:15:00
2:35 PM,37.4,32.0,81,30.02,1.0,WNW,5.8,10.4,N/A,,Overcast,300,2013-02-03 20:35:00
2:55 PM,37.4,30.2,75,30.03,10.0,WNW,4.6,19.6,N/A,,Overcast,300,2013-02-03 20:55:00
3:15 PM,37.4,30.2,75,30.03,10.0,NW,4.6,-,N/A,,Overcast,310,2013-02-03 21:15:00
3:35 PM,37.4,30.2,75,30.04,10.0,WNW,6.9,16.1,N/A,,Overcast,290,2013-02-03 21:35:00
3:55 PM,37.4,30.2,75,30.05,10.0,North,9.2,18.4,N/A,,Overcast,350,2013-02-03 21:55:00
4:15 PM,37.4,30.2,75,30.06,10.0,WNW,9.2,-,N/A,,Overcast,290,2013-02-03 22:15:00
4:35 PM,35.6,30.2,81,30.07,10.0,Calm,Calm,-,N/A,,Overcast,290,2013-02-03 22:35:00
4:55 PM,35.6,28.4,75,30.08,10.0,NW,6.9,21.9,N/A,,Overcast,310,2013-02-03 22:55:00
5:15 PM,35.6,28.4,75,30.09,10.0,North,-9999.0,-,N/A,,Overcast,0,2013-02-03 23:15:00
5:35 PM,33.8,28.4,81,30.11,10.0,North,-9999.0,-,N/A,,Overcast,0,2013-02-03 23:35:00
5:55 PM,33.8,26.6,75,30.12,10.0,NW,5.8,-,N/A,,Overcast,320,2013-02-03 23:55:00
6:15 PM,33.8,26.6,75,30.13,10.0,WNW,11.5,16.1,N/A,,Overcast,290,2013-02-04 00:15:00
7:15 PM,33.8,26.6,75,30.14,10.0,Calm,Calm,-,N/A,,Overcast,0,2013-02-04 01:15:00
7:35 PM,33.8,26.6,75,30.15,10.0,North,-9999.0,-,N/A,,Overcast,0,2013-02-04 01:35:00
7:55 PM,33.8,26.6,75,30.14,10.0,NW,3.5,-,N/A,,Overcast,320,2013-02-04 01:55:00
8:15 PM,33.8,26.6,75,30.14,10.0,NNW,3.5,-,N/A,,Overcast,330,2013-02-04 02:15:00
8:35 PM,33.8,26.6,75,30.15,10.0,NW,3.5,-,N/A,,Overcast,310,2013-02-04 02:35:00
8:55 PM,33.8,26.6,75,30.15,10.0,NNW,3.5,-,N/A,,Overcast,330,2013-02-04 02:55:00
9:15 PM,33.8,26.6,75,30.15,10.0,Calm,Calm,-,N/A,,Overcast,0,2013-02-04 03:15:00
9:35 PM,33.8,26.6,75,30.15,10.0,NNW,3.5,-,N/A,,Overcast,330,2013-02-04 03:35:00
9:55 PM,33.8,26.6,75,30.14,10.0,NW,6.9,-,N/A,,Overcast,310,2013-02-04 03:55:00
10:15 PM,33.8,26.6,75,30.14,10.0,NW,5.8,-,N/A,,Overcast,310,2013-02-04 04:15:00
10:35 PM,33.8,26.6,75,30.14,10.0,NW,5.8,-,N/A,,Overcast,310,2013-02-04 04:35:00
10:55 PM,33.8,26.6,75,30.13,10.0,NNW,3.5,-,N/A,,Overcast,330,2013-02-04 04:55:00
11:15 PM,33.8,26.6,75,30.13,10.0,WNW,3.5,-,N/A,,Overcast,300,2013-02-04 05:15:00
11:35 PM,33.8,26.6,75,30.13,10.0,Calm,Calm,-,N/A,,Mostly Cloudy,0,2013-02-04 05:35:00
11:55 PM,32.0,26.6,80,30.13,10.0,Calm,Calm,-,N/A,,Mostly Cloudy,0,2013-02-04 05:55:00